Location: Il Ritiro
(43.4167°N, 13.1333°E)
Time: 01:41:35
(UTC+00:00)

YAOGAN 11 - Pass Details

Date: 05 July 2020
Orbit: 614 x 668 km, 98.3° (Epoch: 11 August)

Event Time Altitude Azimuth Distance (km) Brightness Sun altitude
Exits shadow 23:09:08 73° 101° (E) 661 4.0 -23.9°
Maximum altitude 23:09:19 75° 75° (ENE) 657 4.1 -23.9°
Drops below altitude 10° 23:13:44 10° 350° (N) 2,033 7.8 -23.9°
Sets 23:15:58 0° 349° (N) 2,955 8.9 -23.9°
